Flag for Canada Weather past 2 weeks in Sault Ste. Marie, Ontario, Canada

Now
66 °F

Broken clouds.


Feels Like: 66 °F
Forecast: 54 / 67 °F
Wind: 13 mph from Northwest

Location: Sault Ste Marie

Current Time: Aug 3, 2015 at 3:13:40 PM

Latest Report: Aug 3, 2015 at 2:00 PM


Visibility: 15 mi

Pressure: 29.73 "Hg

Humidity: 64%

Dew point: 54 °F

Location of Sault Ste. MarieLocation

Historic Weather in Sault Ste. Marie — Graph

°F

Sault Ste. Marie temperature yesterday

Maximum temperature yesterday: 72 °F (at 1:00 PM)
Minimum temperature yesterday: 52 °F (at 12:00 AM)
Average temperature yesterday: 64 °F

Past Weeks' High & Low Weather Summary

 TemperatureHumidityPressure
High90 °F (Jul 28, 3:00 PM)100% (Jul 20, 12:00 AM)30.03 "Hg (Jul 20, 12:00 AM)
Low43 °F (Jul 23, 5:00 AM)31% (Jul 23, 2:00 PM)29.54 "Hg (Aug 2, 7:00 PM)
Average66 °F75%29.84 "Hg
* Reported Jul 19 2:00 PM — Aug 3 2:00 PM, Sault Ste. Marie, Weather by CustomWeather, © 2015

Note: Actual official high and low records may vary slightly from our data, if they occured in-between our weather recording intervals... More about our weather records

Advertising

Sault Ste. Marie weather history for previous 24 hours

 ConditionsComfort  
Time TempWeatherWind HumidityBarometerVisibility
2:00 PM
Mon, Aug 3
66 °FBroken clouds.13 mph64%29.73 "Hg15 mi
1:00 PM64 °FPartly sunny.15 mph68%29.73 "Hg15 mi
12:00 PM63 °FPartly sunny.14 mph73%29.72 "Hg15 mi
11:00 AM61 °FPartly sunny.13 mph72%29.70 "Hg15 mi
10:00 AM61 °FPartly sunny.13 mph77%29.70 "Hg15 mi
9:00 AM59 °FPartly sunny.12 mph77%29.69 "Hg15 mi
8:00 AM59 °FPartly sunny.9 mph88%29.68 "Hg15 mi
7:00 AM59 °FLow clouds.8 mph88%29.67 "Hg12 mi
6:53 AM59 °FOvercast.8 mph88%29.66 "Hg10 mi
6:00 AM59 °FLow clouds.10 mph94%29.65 "Hg10 mi
5:04 AM59 °FLow clouds.10 mph88%29.63 "Hg7 mi
4:00 AM59 °FLow clouds.10 mph88%29.63 "Hg8 mi
3:00 AM61 °FPassing clouds.12 mph88%29.62 "Hg8 mi
2:50 AM61 °FPassing clouds.10 mph88%29.62 "Hg10 mi
2:00 AM61 °FPassing clouds.6 mph88%29.62 "Hg10 mi
1:54 AM61 °FPassing clouds.6 mph88%29.62 "Hg10 mi
1:00 AM61 °FPassing clouds.10 mph88%29.61 "Hg12 mi
12:00 AM61 °FPassing clouds.13 mph88%29.59 "Hg10 mi
11:00 PM
Sun, Aug 2
61 °FPassing clouds.8 mph83%29.60 "Hg10 mi
10:00 PM63 °FPartly sunny.10 mph83%29.59 "Hg15 mi
9:00 PM63 °FPartly sunny.7 mph88%29.57 "Hg15 mi
8:00 PM66 °FPartly sunny.6 mph78%29.55 "Hg15 mi
7:00 PM68 °FMostly cloudy.6 mph78%29.54 "Hg15 mi
6:00 PM66 °FMostly cloudy.8 mph88%29.55 "Hg15 mi
5:00 PM68 °FLight rain. Mostly cloudy.8 mph83%29.58 "Hg15 mi
4:00 PM70 °FPartly sunny.6 mph83%29.56 "Hg15 mi
3:00 PM68 °FLight rain. Cloudy.9 mph83%29.59 "Hg13 mi
Weather by CustomWeather, © 2015

See weather overviewHow to use our weather pages